Wind_Speed
20 20 23 22 20 19 19 20 19 13 14 16 14 14 12 13 14 15 16 17 18 19 19 19 20 20 23 25 29 31 34 37 41 41 40 38 40 41 41 44 44 45 46
18 21 25 28 26 22 13 9 8 9 15 10 11 11 11 13 14 15 17 16 17 17 17 18 19 21 24 27 30 32 35 37 42 46 44 42 41 41 44 46 48 49 48
20 18 16 17 10 3 8 7 7 10 8 8 10 11 12 13 14 13 13 15 16 16 18 20 23 26 28 30 33 35 38 41 44 47 50 49 48 47 45 45 46 50 52
20 12 9 7 7 6 7 7 8 8 9 11 12 12 12 13 12 14 15 16 17 19 21 23 26 28 30 32 34 36 39 42 45 49 52 54 54 53 52 51 48 48 52
4 6 8 7 8 8 7 7 9 13 12 11 12 13 14 14 14 14 15 17 18 21 24 26 28 29 30 32 35 38 41 44 46 48 51 53 54 53 51 52 55 54 48
7 4 3 5 6 7 10 13 12 10 11 12 13 14 15 14 14 14 15 18 21 24 27 29 31 34 35 37 39 41 43 46 47 49 51 53 52 52 50 53 54 55 59
10 9 10 11 11 11 10 10 9 11 13 14 14 14 13 14 15 17 18 20 23 27 29 31 32 34 36 39 41 43 46 47 48 50 50 49 50 48 51 53 53 54 56
7 7 8 10 9 9 9 10 11 13 13 14 13 12 13 16 17 20 22 24 26 29 31 33 35 37 39 41 43 44 46 47 48 48 46 44 45 46 47 49 51 52 51
7 8 8 7 7 9 11 12 13 13 13 12 13 14 15 16 19 21 25 28 31 34 35 35 36 38 38 42 45 46 46 46 47 45 42 40 41 41 42 45 44 46 53
7 7 8 8 9 11 12 13 13 12 13 14 15 16 17 18 20 24 28 31 33 35 37 38 39 43 43 45 45 46 47 47 46 43 38 37 39 38 37 37 40 47 50
7 7 8 9 10 10 10 11 13 14 15 16 17 17 20 21 24 28 30 33 33 34 35 35 38 43 43 44 44 45 44 45 43 40 37 38 37 37 35 36 39 40 48
6 6 7 7 8 9 10 14 15 17 19 21 21 22 22 25 28 32 33 33 32 30 31 37 40 42 43 43 43 42 41 40 38 35 36 37 36 35 34 35 33 36 41
4 5 7 10 12 14 16 17 20 21 24 27 26 25 26 28 32 33 35 31 27 30 36 39 39 41 42 41 40 39 36 35 34 34 35 35 34 34 34 32 29 36 34
7 9 12 16 17 19 22 25 27 26 28 28 30 29 31 30 32 30 28 27 29 34 38 39 39 40 39 39 37 34 32 30 32 32 33 33 32 33 30 29 30 34 33
13 15 16 21 23 23 26 29 30 32 35 40 43 38 29 26 28 26 24 27 30 34 34 35 36 35 35 33 32 32 29 29 30 30 31 31 30 31 27 26 26 30 29
17 20 22 24 25 28 26 24 25 25 27 22 21 19 21 23 22 21 24 27 29 30 30 31 31 32 32 31 31 29 28 29 28 29 29 29 28 29 27 24 22 26 28
22 22 23 23 25 24 25 23 23 21 20 20 20 19 18 21 22 22 23 25 27 28 28 29 30 30 30 30 29 28 28 27 27 27 28 28 27 26 25 24 22 22 24
19 18 20 22 24 25 25 22 20 18 19 19 16 19 19 20 22 23 24 24 25 27 27 28 29 29 29 29 28 27 26 26 25 26 27 27 27 25 24 21 21 20 22
17 18 19 20 20 17 16 17 15 14 13 17 20 24 23 22 23 23 22 23 23 24 25 26 27 28 27 27 27 26 25 24 24 24 25 26 25 24 22 21 19 17 17
13 12 12 12 12 12 12 12 11 12 15 16 17 19 21 21 21 21 23 23 23 23 24 25 26 27 26 26 25 25 24 23 23 23 24 25 24 22 21 19 16 16 13
11 12 12 14 15 12 9 11 11 14 14 16 19 19 18 19 20 22 23 24 24 23 24 25 26 26 25 26 25 24 24 23 22 22 22 23 23 20 18 17 14 12 12
13 13 13 13 12 12 11 11 13 15 17 18 20 23 19 20 21 22 23 24 25 27 26 26 26 25 25 25 25 23 23 22 21 21 21 22 22 19 16 14 12 9 8
14 15 14 13 12 13 13 13 14 16 17 18 19 19 22 23 24 26 27 26 26 27 28 27 26 25 24 25 24 23 23 22 21 21 20 22 22 18 14 12 10 8 6
16 16 16 15 15 14 16 18 17 20 20 20 22 24 25 25 26 27 28 28 28 27 27 27 26 25 24 24 24 23 23 22 22 21 21 22 22 17 13 10 8 6 4
20 20 20 21 21 20 21 23 25 24 22 26 25 24 25 26 28 29 30 30 29 29 27 26 26 26 25 24 23 23 23 23 22 21 22 23 20 16 12 8 6 6 4
22 23 24 26 25 24 25 26 26 25 28 26 28 26 24 26 25 28 30 30 30 30 28 26 26 26 24 24 23 23 23 23 22 22 22 21 18 14 11 8 5 4 5
Wind_Direction
244 245 244 236 230 233 237 241 246 249 257 256 258 264 270 279 288 293 295 296 297 298 299 303 306 309 312 314 315 315 314 313 311 311 308 303 298 295 291 289 285 281 278
242 249 254 257 251 238 235 238 238 237 234 236 254 271 284 285 287 289 291 295 298 299 304 306 308 310 313 313 313 313 313 313 312 312 312 310 306 300 296 289 285 282 278
246 247 261 257 233 249 260 263 236 226 236 256 260 263 266 273 280 285 290 294 296 299 303 308 312 314 315 317 317 317 318 318 317 315 313 312 310 306 297 292 289 285 280
252 252 259 243 231 246 250 236 239 256 264 264 268 273 278 282 289 292 294 297 303 306 308 311 315 316 316 318 320 320 319 319 318 316 314 313 312 309 305 301 290 284 282
212 238 233 239 234 216 219 238 255 252 249 261 275 283 287 288 291 294 297 303 307 310 313 315 316 317 317 316 319 322 320 318 316 313 311 311 309 305 303 299 295 292 282
197 183 225 235 256 258 247 241 239 251 261 271 276 279 281 283 284 291 300 309 314 315 318 318 318 319 323 322 320 320 319 316 314 312 311 308 305 301 300 297 296 295 289
252 239 241 238 235 230 231 243 251 258 266 270 273 278 285 293 299 303 306 311 313 315 315 313 313 316 317 319 320 319 318 315 314 312 310 307 303 304 300 298 296 293 292
230 221 222 222 218 224 238 253 262 267 271 274 279 284 294 301 304 307 307 310 311 310 310 311 311 314 316 317 316 315 314 313 312 310 306 303 301 301 300 298 296 293 292
207 212 213 222 236 249 257 263 267 270 274 280 283 286 289 296 302 306 307 309 312 312 309 309 310 308 310 313 314 313 311 310 309 307 305 305 305 304 302 297 295 294 296
221 219 226 239 252 262 266 269 273 273 271 271 275 286 297 303 305 306 306 307 308 307 307 309 313 313 316 315 315 313 311 310 309 307 308 310 310 308 305 299 300 298 297
213 231 248 258 264 271 275 273 272 275 281 289 296 298 299 295 300 303 303 306 304 302 302 305 309 311 313 314 314 312 312 310 309 310 315 315 315 314 307 302 301 299 301
222 236 253 267 278 282 276 277 284 288 286 284 282 284 294 296 290 301 300 298 298 300 303 308 311 312 314 313 312 312 312 310 310 315 319 319 317 313 309 307 306 307 306
235 274 289 284 289 292 284 284 284 283 284 287 290 293 293 291 297 290 295 296 296 299 305 310 309 310 312 314 315 315 314 317 318 319 320 320 318 317 315 315 312 323 313
278 285 293 296 299 297 303 304 302 300 293 287 289 292 295 293 294 294 293 296 301 307 311 312 313 312 314 319 320 319 317 316 318 321 322 321 320 320 321 323 324 336 331
306 304 303 306 305 305 305 302 294 289 287 285 285 277 286 293 294 293 293 298 300 304 308 312 314 315 318 319 317 317 318 318 319 322 323 323 323 325 327 329 330 343 346
304 300 297 295 297 299 297 303 306 297 287 302 303 304 300 299 298 299 300 303 305 308 312 315 317 320 320 320 318 319 321 320 322 325 327 327 327 330 332 337 336 348 356
301 299 299 294 294 292 298 303 298 301 305 307 306 305 304 305 307 307 307 308 308 312 316 319 321 321 321 320 320 320 322 322 324 328 331 330 331 334 335 341 345 351 3
297 298 297 296 293 295 300 300 299 303 312 318 316 314 314 313 312 311 311 312 315 318 320 320 321 322 322 322 321 321 323 323 325 328 332 335 335 336 339 340 349 354 4
302 297 299 297 298 298 298 296 304 314 323 321 320 320 317 315 313 312 313 314 316 317 319 320 323 324 324 322 322 322 323 323 324 328 333 336 336 337 339 340 347 357 4
309 312 311 312 314 310 302 309 311 308 317 321 322 318 316 320 321 319 317 318 320 322 323 324 325 326 326 323 324 323 324 323 324 326 331 335 337 338 336 339 344 354 8
320 318 317 316 315 317 304 300 297 305 315 325 328 331 326 323 320 319 321 322 321 321 322 323 325 326 326 324 324 323 322 322 323 325 328 334 335 337 334 335 341 349 359
319 317 317 320 314 304 300 306 311 314 318 320 323 326 335 329 332 327 324 322 323 322 323 323 325 326 325 323 321 322 322 321 321 323 324 330 332 332 332 330 334 339 350
320 319 316 308 303 295 285 284 294 303 303 305 308 313 320 326 327 330 326 322 320 321 322 321 322 325 324 321 320 321 321 320 320 321 322 326 328 328 328 325 326 328 339
313 314 311 300 289 277 275 277 280 288 290 297 302 310 316 321 327 328 326 324 319 317 319 320 320 321 321 319 318 319 317 319 317 317 318 321 323 321 322 319 316 315 305
302 303 301 299 290 285 283 284 287 288 290 302 304 309 316 321 322 325 323 320 318 316 317 318 317 317 317 316 315 315 315 315 314 314 316 316 316 314 313 309 302 300 286
296 296 297 295 288 281 284 285 281 277 284 294 299 304 310 311 314 317 319 317 317 317 316 315 314 313 314 313 313 312 312 311 311 312 313 310 308 304 302 296 277 267 260
Height
3114 3115 3116 3116 3116 3116 3116 3118 3119 3120 3122 3122 3122 3123 3122 3122 3122 3121 3121 3120 3119 3118 3117 3115 3112 3109 3107 3106 3104 3101 3098 3094 3089 3090 3088 3088 3084 3080 3078 3073 3071 3069 3065
3107 3109 3111 3112 3110 3108 3107 3109 3110 3114 3117 3117 3117 3117 3118 3119 3118 3118 3117 3115 3113 3112 3110 3108 3106 3104 3102 3101 3098 3096 3091 3088 3082 3076 3075 3073 3072 3070 3064 3061 3058 3054 3051
3102 3102 3102 3103 3102 3104 3107 3111 3111 3112 3111 3113 3114 3115 3116 3115 3114 3113 3111 3110 3108 3107 3105 3103 3101 3099 3095 3093 3089 3087 3082 3078 3073 3067 3061 3058 3055 3053 3052 3047 3043 3038 3034
3096 3095 3097 3101 3102 3101 3103 3106 3109 3110 3110 3113 3112 3112 3112 3111 3109 3108 3106 3105 3104 3102 3100 3097 3095 3093 3089 3085 3082 3078 3073 3069 3063 3057 3051 3045 3040 3035 3031 3027 3027 3024 3018
3092 3094 3095 3097 3100 3099 3101 3103 3106 3107 3108 3107 3108 3108 3108 3106 3105 3104 3102 3100 3099 3097 3094 3091 3088 3087 3082 3078 3074 3069 3064 3059 3054 3047 3041 3035 3029 3023 3017 3011 3003 3000 3005
3091 3091 3093 3095 3100 3099 3100 3102 3101 3103 3104 3102 3103 3103 3103 3103 3101 3099 3097 3095 3093 3091 3087 3083 3080 3077 3072 3069 3064 3059 3055 3049 3044 3036 3031 3024 3019 3009 3004 2996 2989 2985 2977
3089 3089 3091 3094 3095 3097 3096 3099 3098 3100 3100 3100 3098 3100 3098 3097 3095 3093 3091 3089 3087 3084 3081 3078 3075 3071 3066 3061 3056 3051 3045 3038 3032 3026 3019 3013 3005 2998 2989 2983 2978 2972 2965
3087 3087 3090 3092 3093 3093 3094 3095 3095 3096 3095 3095 3093 3094 3093 3091 3090 3088 3085 3083 3080 3077 3073 3070 3067 3062 3057 3053 3048 3042 3035 3028 3023 3017 3009 3003 2994 2988 2979 2971 2965 2958 2953
3085 3087 3089 3089 3089 3090 3091 3091 3091 3091 3091 3089 3088 3088 3088 3087 3084 3082 3079 3076 3072 3069 3066 3063 3059 3055 3051 3044 3038 3032 3026 3019 3013 3006 2999 2992 2983 2977 2969 2960 2955 2947 2938
3085 3085 3087 3087 3087 3088 3088 3088 3087 3086 3085 3085 3084 3083 3082 3080 3078 3076 3073 3070 3066 3063 3058 3054 3049 3044 3039 3033 3027 3021 3014 3007 3001 2994 2988 2980 2973 2967 2960 2953 2945 2936 2927
3083 3085 3085 3085 3086 3085 3085 3085 3084 3083 3082 3080 3078 3078 3077 3075 3072 3069 3066 3063 3059 3055 3051 3047 3042 3036 3030 3024 3018 3011 3004 2996 2989 2983 2976 2970 2963 2957 2950 2945 2938 2929 2918
3081 3082 3082 3082 3082 3082 3082 3082 3080 3079 3077 3075 3074 3073 3071 3068 3064 3062 3058 3054 3050 3046 3043 3039 3033 3026 3020 3014 3008 3001 2994 2986 2980 2974 2967 2961 2954 2948 2943 2935 2928 2921 2909
3079 3079 3079 3079 3079 3077 3077 3076 3075 3073 3071 3068 3065 3064 3062 3060 3056 3052 3049 3045 3042 3039 3034 3029 3024 3017 3011 3005 2998 2991 2985 2977 2971 2966 2960 2954 2947 2940 2933 2926 2919 2910 2898
3077 3077 3076 3075 3074 3073 3071 3069 3067 3066 3063 3060 3057 3055 3053 3050 3047 3043 3040 3037 3034 3029 3025 3020 3014 3008 3002 2995 2988 2983 2978 2972 2965 2960 2954 2947 2941 2934 2926 2918 2911 2901 2889
3074 3073 3072 3071 3069 3067 3065 3063 3060 3058 3054 3050 3047 3044 3043 3041 3038 3036 3033 3031 3028 3023 3018 3012 3007 3001 2995 2989 2983 2978 2972 2966 2960 2955 2948 2942 2935 2928 2921 2914 2907 2898 2887
3070 3069 3068 3065 3063 3061 3058 3056 3052 3049 3045 3042 3039 3037 3036 3034 3032 3029 3027 3023 3019 3015 3010 3005 3000 2994 2989 2983 2977 2971 2966 2960 2955 2950 2944 2937 2930 2924 2917 2911 2904 2896 2887
3065 3064 3061 3059 3057 3054 3052 3049 3046 3043 3039 3037 3035 3033 3031 3028 3026 3022 3019 3016 3012 3008 3003 2998 2993 2988 2983 2977 2971 2966 2961 2956 2951 2946 2940 2933 2927 2921 2914 2908 2901 2895 2888
3059 3057 3055 3053 3051 3048 3046 3043 3041 3038 3035 3031 3030 3028 3026 3022 3019 3016 3013 3009 3005 3000 2996 2992 2987 2982 2977 2971 2965 2960 2956 2951 2947 2942 2936 2930 2924 2918 2912 2907 2901 2895 2889
3054 3052 3050 3047 3045 3043 3041 3039 3037 3035 3033 3031 3027 3022 3019 3017 3013 3010 3007 3003 2999 2995 2991 2986 2981 2976 2971 2966 2960 2956 2952 2947 2943 2938 2933 2928 2922 2916 2911 2906 2901 2896 2892
3048 3047 3045 3043 3041 3039 3037 3035 3034 3032 3029 3026 3023 3020 3015 3011 3008 3004 3000 2996 2993 2988 2984 2979 2975 2971 2966 2961 2956 2951 2947 2943 2939 2935 2930 2925 2920 2915 2910 2906 2901 2897 2894
3044 3042 3041 3039 3037 3035 3033 3031 3030 3028 3025 3023 3019 3015 3011 3008 3004 3000 2996 2991 2987 2983 2978 2974 2970 2965 2961 2956 2951 2947 2943 2939 2935 2931 2927 2923 2918 2914 2910 2906 2902 2899 2896
3040 3038 3036 3034 3033 3031 3030 3028 3026 3024 3021 3018 3015 3009 3007 3003 2998 2994 2990 2986 2982 2977 2972 2968 2964 2960 2956 2951 2947 2943 2939 2935 2932 2928 2924 2921 2916 2913 2909 2905 2902 2900 2898
3036 3034 3032 3030 3028 3027 3025 3022 3020 3017 3015 3012 3009 3005 3001 2998 2994 2990 2985 2980 2976 2972 2967 2963 2958 2955 2951 2947 2942 2938 2935 2931 2928 2924 2921 2917 2913 2910 2908 2905 2902 2901 2899
3032 3030 3028 3025 3021 3019 3017 3015 3013 3010 3009 3006 3003 3000 2996 2992 2988 2983 2979 2975 2971 2966 2961 2957 2953 2949 2946 2942 2938 2934 2930 2927 2923 2920 2917 2914 2910 2907 2906 2904 2902 2900 2900
3026 3025 3022 3019 3016 3013 3010 3008 3006 3004 3001 2998 2996 2993 2989 2986 2982 2977 2973 2969 2965 2960 2955 2951 2947 2943 2940 2936 2933 2929 2925 2922 2919 2916 2912 2909 2907 2904 2902 2902 2901 2899 2899
3020 3018 3015 3012 3009 3007 3004 3001 2999 2996 2993 2991 2988 2986 2982 2979 2976 2972 2967 2962 2958 2953 2949 2945 2941 2937 2934 2930 2927 2924 2920 2917 2914 2911 2908 2905 2902 2901 2899 2899 2899 2899 2898